Location: Pasadena, ca
(34.1243°N, 118.1037°W)
Time: 01:42:06
(UTC-08:00)

N. Korean satellite - Visible Passes

Search period start: 25 November 2017 00:00
Search period end: 05 December 2017 00:00
Orbit: 460 x 514 km, 97.2° (Epoch: 24 November)

Date Brightness Start Highest point End Pass type
(mag) Time Alt. Az. Time Alt. Az. Time Alt. Az.
25 Nov 10.0 05:39:09 10° ENE 05:41:08 14° E 05:43:05 10° SE visible
25 Nov 6.6 17:43:30 10° SSE 17:46:56 53° ENE 17:50:26 10° N visible
26 Nov 7.6 17:20:37 10° SE 17:23:33 25° ENE 17:26:31 10° NNE visible
26 Nov 9.8 18:55:05 10° SW 18:57:03 14° W 18:59:03 10° WNW visible
27 Nov 8.6 18:30:18 10° SSW 18:33:25 29° W 18:36:36 10° NW visible
28 Nov 9.2 06:01:00 10° NE 06:04:15 27° E 06:07:28 10° SSE visible
28 Nov 6.9 18:06:22 10° S 18:09:52 67° W 18:13:28 10° NNW visible
29 Nov 10.0 05:38:40 10° ENE 05:40:37 14° E 05:42:33 10° SE visible
29 Nov 6.6 17:42:55 10° SSE 17:46:23 53° ENE 17:49:55 10° N visible
30 Nov 7.6 17:20:02 10° SE 17:22:59 25° ENE 17:26:00 10° NNE visible
30 Nov 9.8 18:54:26 10° SW 18:56:29 15° W 18:58:34 10° WNW visible
01 Dec 8.6 18:29:40 10° SSW 18:32:50 30° W 18:36:04 10° NW visible
02 Dec 9.2 06:00:27 10° NE 06:03:41 27° E 06:06:52 10° SSE visible
02 Dec 6.9 18:05:43 10° S 18:09:15 68° W 18:12:54 10° NNW visible
03 Dec 10.0 05:38:08 10° ENE 05:40:02 13° E 05:41:55 10° SE visible
03 Dec 6.7 17:42:17 10° SSE 17:45:47 52° ENE 17:49:21 10° N visible
04 Dec 7.6 17:19:22 10° SE 17:22:21 25° ENE 17:25:24 10° NNE visible
04 Dec 9.7 18:53:43 10° SW 18:55:50 15° W 18:58:01 10° WNW visible
